Lid_Strength_Index
3 2 3 3 4 3 4 4 4 5 5 5 5 4 4 5 6 6 4 2 5 7 6 6 6 7 6 6 7 6 7 6 7 9 9 10 10 8 10 8 10 10 11 11 11 13 16 5 6 9 8 5 4 4
3 3 4 4 5 5 4 4 4 5 5 5 5 5 4 6 6 6 5 2 3 6 6 5 5 4 4 5 6 6 7 6 6 8 8 8 10 8 9 12 6 12 9 11 10 9 6 4 5 4 4 4 4 4
3 4 4 5 5 5 4 5 5 5 5 5 4 4 5 5 6 5 4 4 5 7 7 7 6 4 3 3 2 7 6 5 6 3 5 7 10 7 11 9 9 7 5 9 8 6 6 5 4 3 4 4 3 3
4 4 5 5 5 4 5 5 5 5 5 5 5 5 5 5 5 4 4 4 5 7 9 7 4 5 3 2 2 3 4 3 3 5 6 8 9 5 8 7 8 6 6 8 7 5 5 4 4 3 3 3 3 3
5 5 5 5 5 5 5 5 5 4 4 5 5 5 5 5 4 3 4 4 4 7 10 8 5 4 3 2 3 3 3 4 5 6 7 8 6 6 6 6 7 5 6 8 9 6 6 5 4 3 4 4 3 4
5 5 5 5 5 5 5 5 4 4 5 6 5 5 4 4 5 5 8 4 4 5 8 10 5 5 3 3 4 4 4 4 5 6 6 5 4 5 9 9 5 5 4 4 6 4 4 3 3 3 4 3 3 3
5 5 5 6 6 5 4 4 4 4 5 5 5 4 4 4 4 7 9 6 5 5 9 10 8 5 4 4 5 5 3 5 5 5 6 7 6 5 8 10 5 4 3 4 3 3 5 4 5 3 3 3 3 3
6 5 5 6 5 5 4 4 5 5 5 5 5 5 5 5 5 7 5 6 5 7 7 11 8 7 4 7 6 4 5 4 4 5 4 6 5 6 10 6 5 4 4 4 4 3 3 3 3 4 3 3 4 5
6 6 6 5 5 6 5 6 5 5 6 6 7 6 4 6 7 6 6 6 4 7 9 9 9 9 5 6 4 4 5 8 4 7 6 5 7 10 7 6 5 4 5 5 4 4 4 4 4 4 4 4 5 5
6 5 6 6 6 6 6 5 6 6 7 7 6 6 8 6 5 5 7 9 8 8 7 9 6 8 5 5 6 6 5 7 10 7 4 8 8 5 5 4 3 3 3 3 5 5 4 5 5 5 4 4 4 5
6 6 6 6 6 7 7 6 6 6 7 6 7 7 5 5 6 7 10 10 9 10 8 8 7 8 3 7 8 5 7 6 10 8 8 10 10 6 4 4 3 3 3 3 3 3 3 4 4 4 4 5 5 5
6 6 6 6 6 6 6 6 6 6 5 7 6 6 5 7 8 11 11 9 9 10 6 7 6 5 4 3 6 6 8 7 11 6 9 11 7 5 4 4 4 3 3 3 3 3 4 3 3 4 4 5 5 4
6 6 6 6 6 6 5 5 6 6 7 6 8 10 10 9 12 12 13 10 10 7 6 6 6 4 4 4 8 9 10 10 6 10 11 8 5 4 4 4 4 3 3 3 3 3 3 3 3 4 5 4 4 5
6 6 6 6 6 6 6 7 7 7 6 9 10 12 10 11 10 8 8 6 3 3 3 4 5 6 4 7 7 11 7 6 11 12 10 7 6 5 4 3 3 4 3 3 3 3 3 3 3 4 4 4 5 5
6 6 6 7 7 7 7 7 7 5 6 9 8 12 10 7 6 6 5 4 3 3 4 5 5 6 6 8 7 8 10 12 10 11 7 6 5 4 4 4 3 3 3 3 3 3 3 3 4 4 4 3 4 4
6 7 7 7 7 7 6 5 5 5 6 7 8 9 7 7 7 5 5 4 2 2 2 5 8 9 8 7 10 11 11 13 11 9 5 4 4 3 3 3 3 2 2 3 3 2 3 4 4 3 3 3 3 4
7 7 7 7 6 5 5 5 6 7 7 8 8 5 6 6 6 5 4 3 1 3 7 8 11 11 7 9 10 8 11 10 7 5 4 4 4 4 3 3 2 2 3 2 3 2 2 3 2 3 3 2 2 2
8 6 6 5 4 5 5 6 7 7 9 7 7 6 4 4 5 4 3 2 2 3 5 9 8 10 11 11 9 6 5 4 3 4 3 3 3 3 3 3 2 3 2 2 2 2 2 2 3 2 2 2 2 2
5 4 5 5 5 6 7 7 6 9 6 5 5 5 4 4 3 2 2 2 2 3 5 8 9 9 8 6 6 5 4 4 4 4 3 3 3 3 2 2 2 3 2 2 2 2 2 2 3 2 2 1 4 3
5 5 5 5 5 6 8 6 4 7 7 6 5 5 4 4 3 3 2 3 3 4 6 8 7 7 6 5 4 4 3 3 4 5 5 4 3 2 2 3 3 2 2 2 2 4 2 3 3 3 3 3 3 3
7 5 5 4 4 4 5 5 6 5 6 6 5 5 5 3 4 4 4 2 4 5 7 5 4 4 2 2 2 2 2 2 4 5 5 4 2 2 2 2 2 3 2 3 4 4 4 3 2 3 2 3 2 2
5 4 4 3 5 5 5 4 6 5 6 6 5 5 6 6 5 4 3 4 5 5 4 4 3 3 3 2 3 2 2 2 2 2 5 3 3 3 3 3 2 3 3 3 3 3 3 2 2 1 2 2 3 2
4 3 4 4 7 7 7 4 7 6 9 8 6 7 6 5 3 1 5 4 3 2 2 2 2 1 2 2 2 2 2 2 2 2 2 2 2 2 3 2 2 2 3 3 2 2 2 6 4 2 2 2 2 2
5 5 7 8 7 8 6 7 6 7 7 8 8 9 7 6 4 5 7 4 4 3 3 3 2 3 2 3 4 4 3 2 3 2 2 2 3 3 2 2 2 2 2 2 2 2 2 3 5 3 2 3 2 2
7 7 7 9 5 8 8 8 7 8 9 8 9 9 8 6 8 8 8 7 5 4 4 3 3 3 4 4 3 3 1 2 3 2 2 2 2 3 2 2 2 1 1 2 3 3 2 2 2 2 2 3 3 3
10 6 8 7 6 8 7 9 8 8 8 9 9 7 7 8 10 11 8 6 4 5 4 4 4 4 4 3 3 3 2 1 1 2 1 1 2 2 3 4 4 3 1 2 2 3 3 3 3 3 3 4 8 4
9 7 5 2 4 6 6 5 5 6 9 9 7 7 8 11 11 8 5 3 3 3 2 3 3 3 3 3 1 1 1 1 1 1 0 1 0 1 1 3 3 2 1 1 2 2 2 3 2 2 2 2 2 3
4 5 8 6 5 5 7 7 7 8 7 5 6 9 9 9 9 5 4 2 1 1 2 2 2 2 1 1 1 1 1 0 0 0 0 1 0 1 1 1 1 8 1 0 1 1 1 2 1 2 2 3 2 2
5 3 4 7 6 5 6 7 7 5 3 5 8 8 7 5 4 3 2 2 1 2 3 3 2 1 1 0 0 0 0 1 2 3 3 3 3 3 1 1 1 1 0 1 9 5 2 2 1 1 1 1 1 1
5 2 5 6 7 7 5 4 4 3 3 3 3 5 5 4 2 1 3 2 3 3 2 2 1 2 2 2 2 1 1 0 1 2 3 3 2 1 1 1 1 1 1 1 1 2 8 3 4 -0 1 0 1 1
2 3 5 5 6 4 3 2 1 2 3 5 4 6 6 5 2 2 2 2 2 2 2 2 1 1 2 2 2 2 2 0 0 0 0 0 0 0 0 0 -1 -0 0 1 1 1 1 2 1 1 1 2 2 3
3 5 5 7 5 3 2 4 4 6 4 5 5 5 6 6 6 4 2 2 2 3 5 2 2 2 1 0 0 0 5 0 0 -0 0 0 -0 -0 -0 -0 -0 -0 -0 0 1 1 1 1 1 1 2 3 3 3
4 3 4 5 5 6 3 4 5 7 5 6 5 5 6 7 7 5 2 2 3 2 2 1 0 0 0 0 0 1 3 1 6 10 10 10 10 6 1 -0 -0 -0 0 1 1 1 2 2 2 2 2 2 2 3